This demonstration page uses our WeatherBlox Daily Observations layout. Learn more.

Left ArrowRight Arrow

38.20091, -84.87328

Hourly Observations for July 29, 2018

Temp ( °F °C ) Dew Point ( °F °C ) Humidity (%) Winds ( mph kmh ) Pressure ( in mb ) Visibility ( mi km ) Precip ( " mm )
12:53 am 00:53 Clear 65 18.3 62 16.7 90 90 Calm 30.10 1019 10 16 0.00 0.00
1:53 am 01:53 Clear 64 17.8 61 16.1 90 90 Calm 30.10 1019 10 16 0.00 0.00
2:53 am 02:53 Clear 64 17.8 61 16.1 90 90 Calm 30.11 1020 10 16 0.00 0.00
3:53 am 03:53 Clear 63 17.2 60 15.6 90 90 Calm 30.11 1020 9 14 0.00 0.00
4:53 am 04:53 Clear 62 16.7 60 15.6 93 93 Calm 30.10 1019 10 16 0.00 0.00
5:53 am 05:53 Clear 61 16.1 59 15 93 93 Calm 30.11 1020 10 16 0.00 0.00
6:53 am 06:53 Sunny 61 16.1 58 14.4 90 90 Calm 30.11 1020 10 16 0.00 0.00
7:53 am 07:53 Sunny 65 18.3 61 16.1 87 87 Calm 30.10 1019 10 16 0.00 0.00
8:53 am 08:53 Sunny 70 21.1 63 17.2 79 79 Calm 30.09 1019 10 16 0.00 0.00
9:53 am 09:53 Sunny 75 23.9 63 17.2 66 66 ESE 5 7 30.11 1020 10 16 0.00 0.00
10:53 am 10:53 Sunny 78 25.6 63 17.2 60 60 Calm 30.10 1019 10 16 0.00 0.00
11:53 am 11:53 Sunny 80 26.7 60 15.6 51 51 Calm 30.09 1019 10 16 0.00 0.00
12:53 pm 12:53 Sunny 82 27.8 60 15.6 47 47 ESE 6 9 30.08 1019 10 16 0.00 0.00
1:53 pm 13:53 Cloudy 81 27.2 59 15 47 47 Calm 30.08 1019 10 16 0.00 0.00
2:53 pm 14:53 Mostly Cloudy 83 28.3 59 15 44 44 Calm 30.06 1018 10 16 0.00 0.00
3:53 pm 15:53 Sunny 83 28.3 60 15.6 46 46 Calm 30.05 1018 10 16 0.00 0.00
4:53 pm 16:53 Partly Cloudy 84 28.9 59 15 43 43 N 5 7 30.04 1017 10 16 0.00 0.00
5:53 pm 17:53 Sunny 83 28.3 59 15 44 44 NNW 7 11 30.03 1017 10 16 0.00 0.00
6:53 pm 18:53 Sunny 82 27.8 61 16.1 49 49 N 6 9 30.02 1017 10 16 0.00 0.00
7:53 pm 19:53 Sunny 80 26.7 63 17.2 56 56 N 5 7 30.03 1017 10 16 0.00 0.00
8:53 pm 20:53 Clear 77 25 63 17.2 62 62 Calm 30.03 1017 10 16 0.00 0.00
9:53 pm 21:53 Clear 75 23.9 64 17.8 69 69 Calm 30.03 1017 10 16 0.00 0.00
10:53 pm 22:53 Clear 70 21.1 64 17.8 82 82 Calm 30.05 1018 10 16 0.00 0.00
11:53 pm 23:53 Clear 71 21.7 64 17.8 79 79 Calm 30.04 1017 10 16 0.00 0.00

Powered by AerisWeather